FW3031 Weather Reports


time (UTC)temp
F
wind
direction
speed
knots
gust
knots
rain 1hr
in
rain 24hr
in
rain mn
in
humidity
%
barometer
mb
20260505040059 87 190 0.0 0.0 0.00 0.00 0.00 37 1009.6
20260505035558 87 190 0.0 0.0 0.00 0.00 0.00 37 1009.6
20260505035058 88 190 0.0 0.0 0.00 0.00 0.00 37 1009.5
20260505034559 88 190 0.0 0.0 0.00 0.00 0.00 36 1009.3
20260505034557 88 0 0.0 0.0 0.00 0.00 0.00 36 1009.2
20260505034058 88 190 0.0 0.0 0.00 0.00 0.00 36 1009.2
20260505033558 88 190 0.0 0.0 0.00 0.00 0.00 36 1009.2
20260505033058 89 0 0.0 0.0 0.00 0.00 0.00 36 1009.0
20260505032556 88 190 0.0 1.7 0.00 0.00 0.00 36 1009.2
20260505032057 89 190 0.0 2.6 0.00 0.00 0.00 35 1009.2
20260505031610 89 190 0.0 0.0 0.00 0.00 0.00 35 1009.1
20260505031601 89 0 0.0 0.0 0.00 0.00 0.00 35 1009.0
20260505031057 89 190 0.0 1.7 0.00 0.00 0.00 35 1009.0
20260505030556 89 190 0.0 2.6 0.00 0.00 0.00 35 1008.9
20260505030056 89 190 0.0 3.5 0.00 0.00 0.00 34 1008.8
20260505025557 90 190 0.9 6.1 0.00 0.00 0.00 34 1008.7
20260505025056 90 190 0.0 6.1 0.00 0.00 0.00 34 1008.5
20260505024600 90 190 0.9 4.3 0.00 0.00 0.00 34 1008.3
20260505024557 90 190 0.9 4.3 0.00 0.00 0.00 33 1008.2
20260505024059 90 190 0.0 4.3 0.00 0.00 0.00 33 1008.2
20260505023557 91 190 0.9 8.7 0.00 0.00 0.00 33 1008.1
20260505023116 91 190 1.7 8.7 0.00 0.00 0.00 32 1008.0
20260505023059 91 0 3.5 8.7 0.00 0.00 0.00 32 1007.8
20260505022555 91 190 0.0 5.2 0.00 0.00 0.00 32 1008.0
20260505022055 91 190 2.6 5.2 0.00 0.00 0.00 32 1007.9
20260505021600 92 0 0.0 7.8 0.00 0.00 0.00 31 1007.6
20260505021555 92 190 0.0 7.8 0.00 0.00 0.00 31 1007.8
20260505021054 92 190 3.5 7.8 0.00 0.00 0.00 31 1007.7
20260505020557 92 190 2.6 5.2 0.00 0.00 0.00 29 1007.6
20260505020055 93 190 0.9 5.2 0.00 0.00 0.00 27 1007.6
20260505015554 93 190 1.7 5.2 0.00 0.00 0.00 27 1007.6
20260505015056 93 190 0.9 5.2 0.00 0.00 0.00 26 1007.3
20260505014608 93 0 2.6 6.1 0.00 0.00 0.00 26 1007.1
20260505014604 93 190 0.9 6.1 0.00 0.00 0.00 26 1007.2
20260505014053 94 190 1.7 6.1 0.00 0.00 0.00 26 1007.2
20260505013553 94 190 2.6 5.2 0.00 0.00 0.00 26 1007.2
20260505013107 94 190 0.9 7.0 0.00 0.00 0.00 26 1007.0
20260505013100 94 190 1.7 8.7 0.00 0.00 0.00 25 1006.8
20260505012555 94 190 0.9 8.7 0.00 0.00 0.00 26 1006.8
20260505012053 95 190 1.7 7.0 0.00 0.00 0.00 25 1006.8
20260505011600 95 0 3.5 7.0 0.00 0.00 0.00 25 1006.6
20260505011553 95 190 2.6 7.0 0.00 0.00 0.00 25 1006.8
20260505011052 95 190 0.0 4.3 0.00 0.00 0.00 25 1006.8
20260505010552 95 190 0.9 7.0 0.00 0.00 0.00 25 1006.8
20260505010106 96 190 1.7 6.1 0.00 0.00 0.00 25 1006.6
20260505010052 96 190 2.6 7.0 0.00 0.00 0.00 25 1006.7
20260505005552 96 190 0.9 5.2 0.00 0.00 0.00 25 1006.7
20260505005053 96 190 1.7 5.2 0.00 0.00 0.00 25 1006.6
20260505004600 97 190 1.7 7.0 0.00 0.00 0.00 24 1006.4
20260505004556 96 190 1.7 7.0 0.00 0.00 0.00 24 1006.5
20260505004050 97 190 3.5 7.0 0.00 0.00 0.00 24 1006.4
20260505003550 97 190 1.7 7.8 0.00 0.00 0.00 24 1006.4
20260505003109 97 190 1.7 7.8 0.00 0.00 0.00 24 1006.4
20260505003050 97 190 0.9 7.8 0.00 0.00 0.00 24 1006.4
20260505002550 97 190 2.6 7.8 0.00 0.00 0.00 24 1006.3
20260505002050 98 190 1.7 7.0 0.00 0.00 0.00 24 1006.3
20260505001559 98 190 2.6 7.8 0.00 0.00 0.00 23 1006.1
20260505001554 98 190 2.6 7.8 0.00 0.00 0.00 23 1006.2
20260505001050 98 190 3.5 7.8 0.00 0.00 0.00 23 1006.2
20260505000549 98 190 1.7 7.8 0.00 0.00 0.00 24 1006.2
20260505000106 98 190 3.5 8.7 0.00 0.00 0.00 23 1006.2
20260505000059 98 190 3.5 8.7 0.00 0.00 0.00 23 1006.0
20260504235549 98 190 2.6 8.7 0.00 0.00 0.00 23 1006.1
20260504235049 99 190 0.9 7.8 0.00 0.00 0.00 23 1006.1
20260504234558 99 190 2.6 9.6 0.00 0.00 0.00 23 1006.0
20260504234548 99 190 1.7 9.6 0.00 0.00 0.00 23 1006.2
20260504234048 99 190 4.3 9.6 0.00 0.00 0.00 23 1006.1
20260504233547 99 190 1.7 6.1 0.00 0.00 0.00 23 1006.1
20260504233059 99 0 0.9 7.0 0.00 0.00 0.00 23 1006.0
20260504233049 99 190 0.9 7.0 0.00 0.00 0.00 23 1006.2
20260504232548 99 190 2.6 7.0 0.00 0.00 0.00 23 1006.1
20260504232047 99 190 0.9 6.1 0.00 0.00 0.00 23 1006.1
20260504231559 100 190 1.7 9.6 0.00 0.00 0.00 22 1006.0
20260504231547 99 190 1.7 6.1 0.00 0.00 0.00 23 1006.1
20260504231047 100 190 1.7 9.6 0.00 0.00 0.00 23 1006.0
20260504230548 100 190 3.5 9.6 0.00 0.00 0.00 23 1006.1
20260504230059 100 190 0.9 6.1 0.00 0.00 0.00 23 1005.9
20260504225546 99 190 0.0 7.0 0.00 0.00 0.00 23 1005.9
20260504225047 100 190 0.9 7.8 0.00 0.00 0.00 23 1005.9
20260504224600 99 190 2.6 9.6 0.00 0.00 0.00 23 1005.9
20260504224546 99 190 2.6 9.6 0.00 0.00 0.00 23 1005.9
20260504224045 99 190 4.3 9.6 0.00 0.00 0.00 23 1006.0
20260504223545 99 190 0.0 7.0 0.00 0.00 0.00 23 1005.9
20260504223101 100 0 3.5 7.0 0.00 0.00 0.00 23 1006.1
20260504223045 100 190 2.6 7.0 0.00 0.00 0.00 23 1006.1
20260504222544 100 190 2.6 6.1 0.00 0.00 0.00 23 1006.2
20260504222043 100 190 2.6 8.7 0.00 0.00 0.00 23 1006.2
20260504221558 100 190 1.7 8.7 0.00 0.00 0.00 23 1006.3
20260504221554 100 190 0.9 8.7 0.00 0.00 0.00 23 1006.3
20260504221042 100 190 0.0 4.3 0.00 0.00 0.00 24 1006.3
20260504220541 100 190 0.0 7.8 0.00 0.00 0.00 24 1006.3
20260504220107 99 190 2.6 7.8 0.00 0.00 0.00 24 1006.4
20260504220041 99 190 0.9 7.8 0.00 0.00 0.00 24 1006.4
20260504215543 99 190 0.0 6.1 0.00 0.00 0.00 24 1006.3
20260504215042 99 190 0.9 4.3 0.00 0.00 0.00 25 1006.5
20260504214605 99 190 0.9 8.7 0.00 0.00 0.00 24 1006.6
20260504214537 99 190 0.9 8.7 0.00 0.00 0.00 25 1006.6
20260504214037 99 190 3.5 8.7 0.00 0.00 0.00 24 1006.6
20260504213536 99 190 0.9 4.3 0.00 0.00 0.00 25 1006.6
20260504213100 99 0 0.0 9.6 0.00 0.00 0.00 24 1006.7
20260504213041 99 190 0.0 6.1 0.00 0.00 0.00 25 1006.8
20260504212534 99 190 0.0 11.3 0.00 0.00 0.00 25 1007.0
20260504212035 99 190 3.5 11.3 0.00 0.00 0.00 25 1007.1
20260504211556 99 190 1.7 10.4 0.00 0.00 0.00 25 1007.1
20260504211533 99 190 1.7 10.4 0.00 0.00 0.00 25 1007.1
20260504211032 99 190 3.5 10.4 0.00 0.00 0.00 25 1007.3
20260504210532 99 190 1.7 7.0 0.00 0.00 0.00 26 1007.2
20260504210106 98 190 2.6 7.0 0.00 0.00 0.00 25 1007.4
20260504210031 98 190 2.6 6.1 0.00 0.00 0.00 26 1007.3
20260504205530 98 190 1.7 7.0 0.00 0.00 0.00 26 1007.5
20260504205029 99 190 0.9 6.1 0.00 0.00 0.00 27 1007.7
20260504204625 98 190 2.6 6.1 0.00 0.00 0.00 26 1007.7
20260504204528 98 190 0.9 6.1 0.00 0.00 0.00 27 1007.7
20260504204026 98 190 0.9 7.0 0.00 0.00 0.00 27 1007.7
20260504203525 98 190 2.6 7.8 0.00 0.00 0.00 27 1007.8
20260504203134 98 190 1.7 6.1 0.00 0.00 0.00 27 1008.0
20260504203028 98 190 0.9 6.1 0.00 0.00 0.00 28 1008.0
20260504202523 98 190 0.9 7.0 0.00 0.00 0.00 28 1008.1
20260504202022 98 190 1.7 7.0 0.00 0.00 0.00 28 1008.3
20260504201559 97 190 1.7 8.7 0.00 0.00 0.00 28 1008.4
20260504201520 97 190 1.7 8.7 0.00 0.00 0.00 29 1008.3
20260504201019 97 190 4.3 8.7 0.00 0.00 0.00 28 1008.5
20260504200518 96 190 0.0 7.0 0.00 0.00 0.00 29 1008.6
20260504200057 97 190 3.5 8.7 0.00 0.00 0.00 28 1008.9
20260504200019 97 190 3.5 8.7 0.00 0.00 0.00 29 1008.7
20260504195516 97 190 5.2 8.7 0.00 0.00 0.00 28 1008.7
20260504195015 96 190 2.6 7.8 0.00 0.00 0.00 29 1008.7
20260504194559 96 190 1.7 7.8 0.00 0.00 0.00 29 1009.0
20260504194514 96 190 0.9 7.8 0.00 0.00 0.00 29 1008.9
20260504194013 96 190 1.7 7.8 0.00 0.00 0.00 29 1009.0
20260504193512 96 190 1.7 7.8 0.00 0.00 0.00 29 1009.1
20260504193056 96 190 3.5 8.7 0.00 0.00 0.00 30 1009.4
20260504193012 95 190 3.5 8.7 0.00 0.00 0.00 30 1009.2
20260504192508 95 190 2.6 8.7 0.00 0.00 0.00 31 1009.4
20260504192007 95 190 0.9 8.7 0.00 0.00 0.00 31 1009.4
20260504191604 95 190 3.5 11.3 0.00 0.00 0.00 30 1009.6
20260504191507 95 190 3.5 11.3 0.00 0.00 0.00 31 1009.7
20260504191005 95 190 3.5 11.3 0.00 0.00 0.00 31 1009.8
20260504190506 95 190 3.5 9.6 0.00 0.00 0.00 32 1009.9
20260504190058 94 190 3.5 7.8 0.00 0.00 0.00 31 1009.9
20260504190004 94 190 3.5 7.8 0.00 0.00 0.00 32 1010.1
20260504185502 94 190 1.7 7.8 0.00 0.00 0.00 33 1010.2
20260504185101 94 190 0.9 10.4 0.00 0.00 0.00 33 1010.3
20260504184603 94 190 4.3 10.4 0.00 0.00 0.00 33 1010.5
20260504184058 94 190 1.7 7.0 0.00 0.00 0.00 33 1010.5
20260504183557 94 190 1.7 5.2 0.00 0.00 0.00 34 1010.7
20260504183105 93 0 1.7 6.1 0.00 0.00 0.00 34 1010.8
20260504182555 93 190 0.0 6.1 0.00 0.00 0.00 34 1011.0
20260504182057 93 190 2.6 6.1 0.00 0.00 0.00 34 1011.1
20260504181557 94 190 0.9 7.8 0.00 0.00 0.00 34 1011.0
20260504181052 93 190 0.9 7.8 0.00 0.00 0.00 35 1011.3
20260504180551 93 190 0.9 7.8 0.00 0.00 0.00 35 1011.4
20260504180119 92 190 2.6 7.8 0.00 0.00 0.00 36 1011.2
20260504180050 92 190 2.6 7.8 0.00 0.00 0.00 36 1011.5
20260504175552 92 190 3.5 7.0 0.00 0.00 0.00 36 1011.6
20260504175049 92 190 0.0 4.3 0.00 0.00 0.00 35 1011.8
20260504174557 91 0 0.0 8.7 0.00 0.00 0.00 35 1011.6
20260504174546 91 190 0.0 6.1 0.00 0.00 0.00 36 1011.9
20260504174045 91 190 0.9 8.7 0.00 0.00 0.00 36 1012.0
20260504173544 91 190 2.6 7.8 0.00 0.00 0.00 36 1012.1
20260504173110 92 190 1.7 4.3 0.00 0.00 0.00 36 1011.8
20260504173044 91 190 1.7 5.2 0.00 0.00 0.00 36 1012.1
20260504172541 90 190 0.0 4.3 0.00 0.00 0.00 37 1012.2
20260504172041 90 190 0.0 6.1 0.00 0.00 0.00 37 1012.3
20260504171612 90 190 2.6 8.7 0.00 0.00 0.00 36 1012.0
20260504171540 90 190 0.9 6.1 0.00 0.00 0.00 37 1012.3
20260504171040 90 190 0.0 8.7 0.00 0.00 0.00 37 1012.5
20260504170541 90 190 2.6 8.7 0.00 0.00 0.00 37 1012.6
20260504160110 87 0 0.0 4.3 0.00 0.00 0.00 42 1013.3
20260504151023 83 190 0.0 0.0 0.00 0.00 0.00 49 1014.0
20260504150521 83 190 0.0 0.0 0.00 0.00 0.00 49 1014.0
20260504150104 83 0 0.0 0.0 0.00 0.00 0.00 48 1013.6
20260504141013 79 190 0.0 1.7 0.00 0.00 0.00 56 1014.2
20260504140513 79 190 0.0 1.7 0.00 0.00 0.00 58 1014.2
20260504130507 76 190 0.0 0.0 0.00 0.00 0.00 60 1013.6
20260504130105 76 0 0.0 0.0 0.00 0.00 0.00 61 1013.0
20260504110555 76 190 0.0 0.0 0.00 0.00 0.00 57 1012.4
20260504100547 77 190 0.0 0.0 0.00 0.00 0.00 52 1012.3
20260504081559 80 0 0.0 0.0 0.00 0.00 0.00 45 1012.2
20260504081533 80 190 0.0 0.0 0.00 0.00 0.00 46 1012.8
20260504081035 80 190 0.0 0.0 0.00 0.00 0.00 46 1012.9
20260504080532 80 190 0.0 0.0 0.00 0.00 0.00 46 1012.9
20260504060105 83 0 0.0 0.0 0.00 0.00 0.00 39 1012.8
20260504050520 84 190 0.0 4.3 0.00 0.00 0.00 37 1013.2
20260504050020 84 190 0.9 7.0 0.00 0.00 0.00 37 1013.2
20260504045519 85 190 0.0 7.0 0.00 0.00 0.00 37 1013.2
20260504045019 84 190 0.9 4.3 0.00 0.00 0.00 37 1013.1
20260504044558 85 0 0.0 3.5 0.00 0.00 0.00 37 1012.5
20260504044522 84 190 0.0 3.5 0.00 0.00 0.00 37 1013.1
20260504044019 85 190 0.0 3.5 0.00 0.00 0.00 37 1012.9
20260504043518 85 190 0.0 0.0 0.00 0.00 0.00 38 1012.9
20260504043101 85 0 0.0 1.7 0.00 0.00 0.00 38 1012.4
20260504043021 85 190 0.0 1.7 0.00 0.00 0.00 38 1012.9
20260504042518 85 190 0.0 1.7 0.00 0.00 0.00 38 1012.9
20260504042017 85 190 0.0 0.0 0.00 0.00 0.00 38 1012.7
20260504041602 86 0 0.0 0.0 0.00 0.00 0.00 37 1012.2
20260504041518 86 190 0.0 0.0 0.00 0.00 0.00 37 1012.7
20260504041017 86 190 0.0 2.6 0.00 0.00 0.00 37 1012.6
20260504040517 86 190 0.0 2.6 0.00 0.00 0.00 37 1012.6